Location: Sternwarte auf dem Internationalen Platz Vogelsang IP
(50.5721°N, 6.4398°E)
Time: 01:36:21
(UTC+01:00)

Injun/Solrad 3 - All Passes

Search period start: 06 December 2025 00:00
Search period end: 16 December 2025 00:00
Orbit: 876 x 980 km, 66.8° (Epoch: 04 December)

Date Brightness Start Highest point End Pass type
(mag) Time Alt. Az. Time Alt. Az. Time Alt. Az.
06 Dec - 04:26:34 10° S 04:32:07 45° ESE 04:37:40 10° NE visible
06 Dec - 06:13:03 10° WSW 06:18:39 45° NW 06:24:16 10° NNE visible
06 Dec - 08:02:32 10° WNW 08:06:38 19° NNW 08:10:46 10° NNE daylight
06 Dec - 09:51:39 10° NNW 09:55:27 17° N 09:59:18 10° NE daylight
06 Dec - 11:38:22 10° NNW 11:43:44 35° NE 11:49:10 10° ESE daylight
06 Dec - 13:24:46 10° NW 13:30:37 66° WSW 13:36:35 10° SSE daylight
06 Dec - 15:13:30 10° WNW 15:16:01 13° WSW 15:18:34 10° SW daylight
07 Dec - 02:55:25 10° SE 02:57:42 12° ESE 02:59:58 10° ENE visible
07 Dec - 04:37:15 10° SSW 04:43:03 65° ESE 04:48:51 10° NE visible
07 Dec - 06:24:36 10° WSW 06:29:56 35° NW 06:35:16 10° NNE visible
07 Dec - 08:14:24 10° NW 08:18:13 17° N 08:22:02 10° NNE daylight
07 Dec - 10:02:54 10° NNW 10:07:01 19° NNE 10:11:11 10° ENE daylight
07 Dec - 11:49:22 10° NNW 11:55:01 45° NE 12:00:45 10° ESE daylight
07 Dec - 13:35:57 10° NW 13:41:34 46° WSW 13:47:17 10° S daylight
08 Dec - 03:04:23 10° SSE 03:08:21 19° ESE 03:12:19 10° ENE visible
08 Dec - 04:48:11 10° SW 04:54:04 90° W 04:59:57 10° NE visible
08 Dec - 06:36:19 10° W 06:41:18 28° NNW 06:46:17 10° NNE visible
08 Dec - 08:26:12 10° NW 08:29:49 16° N 08:33:27 10° NE daylight
08 Dec - 10:14:02 10° NNW 10:18:33 22° NNE 10:23:06 10° ENE daylight
08 Dec - 12:00:22 10° NNW 12:06:13 60° NE 12:12:10 10° SE daylight
08 Dec - 13:47:14 10° NW 13:52:25 32° WSW 13:57:41 10° S daylight
09 Dec - 03:14:13 10° SSE 03:19:06 28° ESE 03:23:58 10° NE visible
09 Dec - 04:59:19 10° SW 05:05:09 66° NW 05:11:00 10° NE visible
09 Dec - 06:48:08 10° WNW 06:52:44 23° NNW 06:57:21 10° NNE visible
09 Dec - 08:37:50 10° NW 08:41:25 16° N 08:45:03 10° NE daylight
09 Dec - 10:25:05 10° NNW 10:30:00 26° NNE 10:34:58 10° E daylight
09 Dec - 12:11:24 10° NW 12:17:21 81° NE 12:23:23 10° SE daylight
09 Dec - 13:58:45 10° WNW 14:03:12 22° WSW 14:07:43 10° SSW daylight
10 Dec - 03:24:29 10° S 03:29:55 40° ESE 03:35:20 10° NE visible
10 Dec - 05:10:40 10° WSW 05:16:20 49° NW 05:22:02 10° NNE visible
10 Dec - 07:00:01 10° WNW 07:04:13 20° NNW 07:08:28 10° NNE visible
10 Dec - 08:49:17 10° NNW 08:53:02 17° N 08:56:48 10° NE daylight
10 Dec - 10:36:07 10° NNW 10:41:23 32° NE 10:46:43 10° E daylight
10 Dec - 12:22:29 10° NW 12:28:23 74° WSW 12:34:24 10° SSE daylight
10 Dec - 14:10:42 10° WNW 14:13:54 15° WSW 14:17:08 10° SW daylight
11 Dec - 01:54:33 10° ESE 01:55:35 10° E 01:56:37 10° E night (unlit)
11 Dec - 03:35:05 10° SSW 03:40:50 58° ESE 03:46:34 10° NE visible
11 Dec - 05:22:11 10° WSW 05:27:35 37° NW 05:33:02 10° NNE visible
11 Dec - 07:11:54 10° NW 07:15:47 18° NNW 07:19:42 10° NNE visible
11 Dec - 09:00:34 10° NNW 09:04:36 19° NNE 09:08:40 10° ENE daylight
11 Dec - 10:47:07 10° NNW 10:52:42 41° NE 10:58:21 10° ESE daylight
11 Dec - 12:33:37 10° NW 12:39:21 52° WSW 12:45:11 10° SSE daylight
12 Dec - 02:02:40 10° SE 02:06:13 17° ESE 02:09:46 10° ENE visible
12 Dec - 03:45:56 10° SSW 03:51:48 82° SE 03:57:40 10° NE visible
12 Dec - 05:33:49 10° W 05:38:56 30° NNW 05:44:02 10° NNE visible
12 Dec - 07:23:42 10° NW 07:27:22 17° N 07:31:03 10° NNE visible
12 Dec - 09:11:45 10° NNW 09:16:08 21° NNE 09:20:35 10° ENE daylight
12 Dec - 10:58:08 10° NNW 11:03:55 54° NE 11:09:50 10° ESE daylight
12 Dec - 12:44:52 10° NW 12:50:14 36° WSW 12:55:41 10° S daylight
13 Dec - 02:12:18 10° SSE 02:16:56 25° ESE 02:21:33 10° ENE visible
13 Dec - 03:57:01 10° SW 04:02:52 73° NW 04:08:45 10° NE visible
13 Dec - 05:45:37 10° W 05:50:20 24° NNW 05:55:05 10° NNE visible
13 Dec - 07:35:23 10° NW 07:38:59 16° N 07:42:35 10° NE visible
13 Dec - 09:22:49 10° NNW 09:27:37 25° NNE 09:32:27 10° E daylight
13 Dec - 11:09:09 10° NW 11:15:04 74° NE 11:21:06 10° SE daylight
13 Dec - 12:56:18 10° NW 13:01:02 25° WSW 13:05:51 10° SSW daylight
14 Dec - 02:22:27 10° S 02:27:44 36° ESE 02:32:59 10° NE visible
14 Dec - 04:08:17 10° WSW 04:14:01 54° NW 04:19:47 10° NNE visible
14 Dec - 05:57:28 10° WNW 06:01:48 21° NNW 06:06:11 10° NNE visible
14 Dec - 07:46:54 10° NNW 07:50:35 17° N 07:54:18 10° NE visible
14 Dec - 09:33:51 10° NNW 09:39:01 30° NNE 09:44:15 10° E daylight
14 Dec - 11:20:12 10° NW 11:26:09 82° SW 11:32:11 10° SSE daylight
14 Dec - 13:08:03 10° WNW 13:11:46 17° WSW 13:15:31 10° SW daylight
15 Dec - 02:32:56 10° SSW 02:38:36 52° ESE 02:44:15 10° NE visible
15 Dec - 04:19:44 10° WSW 04:25:15 41° NW 04:30:47 10° NNE visible
15 Dec - 06:09:21 10° WNW 06:13:21 18° NNW 06:17:22 10° NNE visible
15 Dec - 07:58:14 10° NNW 08:02:11 18° NNE 08:06:08 10° NE daylight
15 Dec - 09:44:52 10° NNW 09:50:21 38° NE 09:55:56 10° ESE daylight
15 Dec - 11:31:19 10° NW 11:37:08 59° WSW 11:43:03 10° SSE daylight
15 Dec - 13:20:53 10° W 13:22:25 11° W 13:23:57 10° WSW daylight
